Time,TemperatureF,DewpointF,PressureIn,WindDirection,WindDirectionDegrees,WindSpeedMPH,WindSpeedGustMPH,Humidity,HourlyPrecipIn,Conditions,Clouds,dailyrainin,SolarRadiationWatts/m^2,SoftwareType,DateUTC
2013-08-05 00:01:00,61.7,57.2,29.92,NW,306,0.0,4.0,85,0.00,,,0.00,0.0,meteohub,2013-08-05 04:01:00,
2013-08-05 00:02:00,61.7,57.2,29.93,NW,306,0.0,4.0,85,0.00,,,0.00,0.0,meteohub,2013-08-05 04:02:00,
2013-08-05 00:03:00,61.5,57.0,29.93,NW,306,0.0,4.0,85,0.00,,,0.00,0.0,meteohub,2013-08-05 04:03:00,
2013-08-05 00:04:00,61.5,57.0,29.93,NW,306,0.0,4.0,85,0.00,,,0.00,0.0,meteohub,2013-08-05 04:04:00,
2013-08-05 00:09:00,61.3,56.8,29.93,NW,306,0.0,2.0,85,0.00,,,0.00,0.0,meteohub,2013-08-05 04:09:00,
2013-08-05 00:14:00,61.2,56.7,29.93,NW,306,5.0,0.0,85,0.00,,,0.00,0.0,meteohub,2013-08-05 04:14:00,
2013-08-05 00:19:00,61.2,56.3,29.93,NW,311,2.0,7.0,84,0.00,,,0.00,0.0,meteohub,2013-08-05 04:19:00,
2013-08-05 00:24:00,61.3,56.1,29.92,NW,325,5.0,8.0,83,0.00,,,0.00,0.0,meteohub,2013-08-05 04:24:00,
2013-08-05 00:29:00,61.5,55.6,29.92,NNW,348,4.0,8.0,81,0.00,,,0.00,0.0,meteohub,2013-08-05 04:29:00,
2013-08-05 00:34:00,61.9,55.6,29.92,NNW,344,4.0,8.0,80,0.00,,,0.00,0.0,meteohub,2013-08-05 04:34:00,
2013-08-05 00:39:00,62.1,55.4,29.92,NNW,341,5.0,8.0,79,0.00,,,0.00,0.0,meteohub,2013-08-05 04:39:00,
2013-08-05 00:44:00,62.4,55.4,29.92,NNW,336,4.0,7.0,78,0.00,,,0.00,0.0,meteohub,2013-08-05 04:44:00,
2013-08-05 00:49:00,62.6,55.2,29.92,North,355,2.0,10.0,77,0.00,,,0.00,0.0,meteohub,2013-08-05 04:49:00,
2013-08-05 00:55:00,62.6,54.9,29.92,North,5,3.0,10.0,76,0.00,,,0.00,0.0,meteohub,2013-08-05 04:55:00,
2013-08-05 01:00:00,62.6,54.9,29.92,North,349,4.0,8.0,76,0.00,,,0.00,0.0,meteohub,2013-08-05 05:00:00,
2013-08-05 01:04:00,62.8,55.0,29.92,NNW,345,4.0,8.0,76,0.00,,,0.00,0.0,meteohub,2013-08-05 05:04:00,
2013-08-05 01:10:00,62.8,55.0,29.92,NNW,332,1.0,8.0,76,0.00,,,0.00,0.0,meteohub,2013-08-05 05:10:00,
2013-08-05 01:15:00,62.6,54.9,29.92,NNW,332,0.0,8.0,76,0.00,,,0.00,0.0,meteohub,2013-08-05 05:15:00,
2013-08-05 01:20:00,62.2,54.9,29.93,NNW,337,0.0,6.0,77,0.00,,,0.00,0.0,meteohub,2013-08-05 05:20:00,
2013-08-05 01:25:00,61.7,55.0,29.93,NNW,337,0.0,4.0,79,0.00,,,0.00,0.0,meteohub,2013-08-05 05:25:00,
2013-08-05 01:30:00,61.0,54.7,29.93,NNW,337,0.0,2.0,80,0.00,,,0.00,0.0,meteohub,2013-08-05 05:30:00,
2013-08-05 01:35:00,60.8,54.9,29.93,NNW,336,4.0,5.0,81,0.00,,,0.00,0.0,meteohub,2013-08-05 05:35:00,
2013-08-05 01:40:00,61.0,54.7,29.93,NW,323,5.0,6.0,80,0.00,,,0.00,0.0,meteohub,2013-08-05 05:40:00,
2013-08-05 01:46:00,61.2,54.9,29.93,NW,315,5.0,7.0,80,0.00,,,0.00,0.0,meteohub,2013-08-05 05:46:00,
2013-08-05 01:51:00,61.2,54.9,29.93,NW,322,5.0,7.0,80,0.00,,,0.00,0.0,meteohub,2013-08-05 05:51:00,
2013-08-05 01:56:00,61.0,54.7,29.92,NW,322,2.0,7.0,80,0.00,,,0.00,0.0,meteohub,2013-08-05 05:56:00,
2013-08-05 02:01:00,61.0,54.7,29.93,NW,322,1.0,6.0,80,0.00,,,0.00,0.0,meteohub,2013-08-05 06:01:00,
2013-08-05 02:06:00,61.2,54.9,29.93,NW,319,5.0,6.0,80,0.00,,,0.00,0.0,meteohub,2013-08-05 06:06:00,
2013-08-05 02:11:00,61.3,54.9,29.92,NW,308,5.0,7.0,79,0.00,,,0.00,0.0,meteohub,2013-08-05 06:11:00,
2013-08-05 02:16:00,61.3,54.9,29.92,NW,309,4.0,7.0,79,0.00,,,0.00,0.0,meteohub,2013-08-05 06:16:00,
2013-08-05 02:22:00,61.2,54.7,29.92,NW,323,4.0,6.0,79,0.00,,,0.00,0.0,meteohub,2013-08-05 06:22:00,
2013-08-05 02:27:00,60.8,54.7,29.92,NW,323,4.0,7.0,80,0.00,,,0.00,0.0,meteohub,2013-08-05 06:27:00,
2013-08-05 02:32:00,60.6,54.5,29.92,NW,323,1.0,7.0,80,0.00,,,0.00,0.0,meteohub,2013-08-05 06:32:00,
2013-08-05 02:37:00,60.4,54.5,29.93,NW,323,4.0,7.0,81,0.00,,,0.00,0.0,meteohub,2013-08-05 06:37:00,
2013-08-05 02:42:00,60.6,54.7,29.93,NW,319,2.0,6.0,81,0.00,,,0.00,0.0,meteohub,2013-08-05 06:42:00,
2013-08-05 02:47:00,60.6,54.5,29.93,NW,319,1.0,7.0,80,0.00,,,0.00,0.0,meteohub,2013-08-05 06:47:00,
2013-08-05 02:52:00,60.4,54.3,29.93,NW,319,4.0,7.0,80,0.00,,,0.00,0.0,meteohub,2013-08-05 06:52:00,
2013-08-05 02:57:00,60.3,54.3,29.93,NW,319,2.0,7.0,81,0.00,,,0.00,0.0,meteohub,2013-08-05 06:57:00,
2013-08-05 03:02:00,60.3,54.7,29.93,NW,319,1.0,5.0,82,0.00,,,0.00,0.0,meteohub,2013-08-05 07:02:00,
2013-08-05 03:07:00,60.1,54.5,29.93,NW,321,2.0,7.0,82,0.00,,,0.00,0.0,meteohub,2013-08-05 07:07:00,
2013-08-05 03:12:00,59.9,54.3,29.93,NW,321,4.0,8.0,82,0.00,,,0.00,0.0,meteohub,2013-08-05 07:12:00,
2013-08-05 03:17:00,59.5,54.0,29.93,NW,321,2.0,8.0,82,0.00,,,0.00,0.0,meteohub,2013-08-05 07:17:00,
2013-08-05 03:22:00,59.5,54.3,29.93,NW,321,1.0,8.0,83,0.00,,,0.00,0.0,meteohub,2013-08-05 07:22:00,
2013-08-05 03:27:00,59.4,54.1,29.93,NW,321,2.0,5.0,83,0.00,,,0.00,0.0,meteohub,2013-08-05 07:27:00,
2013-08-05 03:32:00,59.2,54.0,29.94,NW,321,4.0,5.0,83,0.00,,,0.00,0.0,meteohub,2013-08-05 07:32:00,
2013-08-05 03:37:00,58.8,53.6,29.94,NW,321,4.0,5.0,83,0.00,,,0.00,0.0,meteohub,2013-08-05 07:37:00,
2013-08-05 03:43:00,58.6,54.1,29.94,NW,321,1.0,5.0,85,0.00,,,0.00,0.0,meteohub,2013-08-05 07:43:00,
2013-08-05 03:48:00,58.5,54.0,29.94,NW,321,0.0,5.0,85,0.00,,,0.00,0.0,meteohub,2013-08-05 07:48:00,
2013-08-05 03:53:00,58.1,54.0,29.94,NW,321,0.0,5.0,86,0.00,,,0.00,0.0,meteohub,2013-08-05 07:53:00,
2013-08-05 03:58:00,57.7,53.6,29.94,NW,321,0.0,2.0,86,0.00,,,0.00,0.0,meteohub,2013-08-05 07:58:00,
2013-08-05 04:02:00,57.4,53.6,29.94,NW,321,0.0,0.0,87,0.00,,,0.00,0.0,meteohub,2013-08-05 08:02:00,
2013-08-05 04:08:00,57.0,53.4,29.94,NW,321,0.0,0.0,88,0.00,,,0.00,0.0,meteohub,2013-08-05 08:08:00,
2013-08-05 04:13:00,56.8,53.2,29.94,NW,321,0.0,0.0,88,0.00,,,0.00,0.0,meteohub,2013-08-05 08:13:00,
2013-08-05 04:18:00,56.8,53.6,29.94,NW,321,0.0,0.0,89,0.00,,,0.00,0.0,meteohub,2013-08-05 08:18:00,
2013-08-05 04:23:00,56.3,53.1,29.94,NW,321,0.0,0.0,89,0.00,,,0.00,0.0,meteohub,2013-08-05 08:23:00,
2013-08-05 04:28:00,55.9,52.7,29.94,NW,321,0.0,0.0,89,0.00,,,0.00,0.0,meteohub,2013-08-05 08:28:00,
2013-08-05 04:33:00,55.9,53.1,29.94,NW,321,0.0,0.0,90,0.00,,,0.00,0.0,meteohub,2013-08-05 08:33:00,
2013-08-05 04:38:00,55.8,52.9,29.95,NW,321,0.0,0.0,90,0.00,,,0.00,0.0,meteohub,2013-08-05 08:38:00,
2013-08-05 04:44:00,55.8,53.2,29.95,NW,321,0.0,0.0,91,0.00,,,0.00,0.0,meteohub,2013-08-05 08:44:00,
2013-08-05 04:49:00,55.6,52.7,29.95,NW,321,0.0,0.0,90,0.00,,,0.00,0.0,meteohub,2013-08-05 08:49:00,
2013-08-05 04:55:00,55.6,53.1,29.95,NW,321,0.0,0.0,91,0.00,,,0.00,0.0,meteohub,2013-08-05 08:55:00,
2013-08-05 05:00:00,55.6,53.1,29.95,NW,321,0.0,0.0,91,0.00,,,0.00,0.0,meteohub,2013-08-05 09:00:00,
2013-08-05 05:05:00,55.6,53.1,29.96,NW,321,0.0,0.0,91,0.00,,,0.00,0.0,meteohub,2013-08-05 09:05:00,
2013-08-05 05:11:00,55.2,52.7,29.96,NW,321,0.0,0.0,91,0.00,,,0.00,0.0,meteohub,2013-08-05 09:11:00,
2013-08-05 05:16:00,55.2,52.7,29.96,NW,321,0.0,0.0,91,0.00,,,0.00,0.0,meteohub,2013-08-05 09:16:00,
2013-08-05 05:21:00,55.0,52.5,29.96,NW,321,0.0,0.0,91,0.00,,,0.00,0.0,meteohub,2013-08-05 09:21:00,
2013-08-05 05:26:00,55.0,52.7,29.96,NW,321,0.0,0.0,92,0.00,,,0.00,0.0,meteohub,2013-08-05 09:26:00,
2013-08-05 05:31:00,54.7,52.2,29.96,NW,321,0.0,1.0,91,0.00,,,0.00,0.0,meteohub,2013-08-05 09:31:00,
2013-08-05 05:36:00,54.3,52.0,29.96,NW,321,0.0,1.0,92,0.00,,,0.00,0.0,meteohub,2013-08-05 09:36:00,
2013-08-05 05:42:00,54.3,52.0,29.96,NW,321,0.0,1.0,92,0.00,,,0.00,0.0,meteohub,2013-08-05 09:42:00,
2013-08-05 05:47:00,54.1,51.8,29.96,NW,321,0.0,0.0,92,0.00,,,0.00,0.0,meteohub,2013-08-05 09:47:00,
2013-08-05 05:52:00,54.3,52.0,29.96,NW,321,0.0,0.0,92,0.00,,,0.00,0.0,meteohub,2013-08-05 09:52:00,
2013-08-05 05:57:00,54.3,52.0,29.97,NW,321,0.0,0.0,92,0.00,,,0.00,5.0,meteohub,2013-08-05 09:57:00,
2013-08-05 06:01:00,54.3,52.3,29.97,NW,321,0.0,1.0,93,0.00,,,0.00,7.0,meteohub,2013-08-05 10:01:00,
2013-08-05 06:06:00,54.1,51.8,29.97,NW,321,0.0,1.0,92,0.00,,,0.00,9.0,meteohub,2013-08-05 10:06:00,
2013-08-05 06:12:00,54.1,52.2,29.97,NW,321,0.0,1.0,93,0.00,,,0.00,11.0,meteohub,2013-08-05 10:12:00,
2013-08-05 06:17:00,54.1,52.2,29.98,NW,321,0.0,0.0,93,0.00,,,0.00,12.0,meteohub,2013-08-05 10:17:00,
2013-08-05 06:22:00,54.3,52.3,29.98,NW,321,0.0,0.0,93,0.00,,,0.00,14.0,meteohub,2013-08-05 10:22:00,
2013-08-05 06:28:00,54.3,52.3,29.98,NW,321,0.0,0.0,93,0.00,,,0.00,16.0,meteohub,2013-08-05 10:28:00,
2013-08-05 06:33:00,54.7,52.7,29.99,NW,321,0.0,0.0,93,0.00,,,0.00,42.0,meteohub,2013-08-05 10:33:00,
2013-08-05 06:39:00,54.9,52.9,29.98,NW,321,0.0,0.0,93,0.00,,,0.00,63.0,meteohub,2013-08-05 10:39:00,
2013-08-05 06:44:00,55.2,53.2,29.99,NW,321,0.0,1.0,93,0.00,,,0.00,77.0,meteohub,2013-08-05 10:44:00,
2013-08-05 06:49:00,55.4,53.4,29.99,NW,321,0.0,1.0,93,0.00,,,0.00,91.0,meteohub,2013-08-05 10:49:00,
2013-08-05 06:54:00,55.6,53.6,29.99,NW,321,0.0,1.0,93,0.00,,,0.00,107.0,meteohub,2013-08-05 10:54:00,
2013-08-05 06:59:00,56.5,54.5,29.99,NW,321,0.0,0.0,93,0.00,,,0.00,123.0,meteohub,2013-08-05 10:59:00,
2013-08-05 07:05:00,57.2,55.2,29.99,NW,321,1.0,0.0,93,0.00,,,0.00,135.0,meteohub,2013-08-05 11:05:00,
2013-08-05 07:10:00,57.9,55.9,30.00,NW,321,2.0,4.0,93,0.00,,,0.00,153.0,meteohub,2013-08-05 11:10:00,
2013-08-05 07:15:00,59.2,56.8,30.00,NNW,328,6.0,7.0,92,0.00,,,0.00,171.0,meteohub,2013-08-05 11:15:00,
2013-08-05 07:20:00,60.1,57.2,30.00,NNW,327,7.0,8.0,90,0.00,,,0.00,190.0,meteohub,2013-08-05 11:20:00,
2013-08-05 07:25:00,60.8,57.2,30.00,NNW,336,6.0,10.0,88,0.00,,,0.00,209.0,meteohub,2013-08-05 11:25:00,
2013-08-05 07:30:00,61.5,57.4,30.00,NW,319,9.0,10.0,86,0.00,,,0.00,221.0,meteohub,2013-08-05 11:30:00,
2013-08-05 07:35:00,62.2,57.4,30.00,NW,316,6.0,11.0,84,0.00,,,0.00,239.0,meteohub,2013-08-05 11:35:00,
2013-08-05 07:40:00,62.6,57.0,30.00,NW,315,4.0,14.0,82,0.00,,,0.00,257.0,meteohub,2013-08-05 11:40:00,
2013-08-05 07:45:00,63.1,57.2,30.00,North,355,5.0,14.0,81,0.00,,,0.00,278.0,meteohub,2013-08-05 11:45:00,
2013-08-05 07:51:00,63.7,57.0,30.00,NNW,327,5.0,14.0,79,0.00,,,0.00,295.0,meteohub,2013-08-05 11:51:00,
2013-08-05 07:57:00,64.0,57.0,30.00,WNW,298,16.0,16.0,78,0.00,,,0.00,316.0,meteohub,2013-08-05 11:57:00,
2013-08-05 08:02:00,64.4,56.7,30.00,West,281,7.0,18.0,76,0.00,,,0.00,330.0,meteohub,2013-08-05 12:02:00,
2013-08-05 08:07:00,64.9,56.8,30.00,North,0,7.0,18.0,75,0.00,,,0.00,346.0,meteohub,2013-08-05 12:07:00,
2013-08-05 08:12:00,65.5,57.0,30.00,West,269,4.0,18.0,74,0.00,,,0.00,362.0,meteohub,2013-08-05 12:12:00,
2013-08-05 08:16:00,65.7,56.8,30.00,North,355,7.0,16.0,73,0.00,,,0.00,383.0,meteohub,2013-08-05 12:16:00,
2013-08-05 08:22:00,66.0,56.7,30.01,NNW,340,5.0,16.0,72,0.00,,,0.00,394.0,meteohub,2013-08-05 12:22:00,
2013-08-05 08:27:00,66.6,56.5,30.01,NNW,346,2.0,16.0,70,0.00,,,0.00,401.0,meteohub,2013-08-05 12:27:00,
2013-08-05 08:32:00,66.7,56.3,30.01,NW,310,13.0,19.0,69,0.00,,,0.00,424.0,meteohub,2013-08-05 12:32:00,
2013-08-05 08:38:00,66.7,56.3,30.01,NW,319,11.0,19.0,69,0.00,,,0.00,441.0,meteohub,2013-08-05 12:38:00,
2013-08-05 08:43:00,67.1,56.1,30.01,NNE,26,12.0,20.0,68,0.00,,,0.00,459.0,meteohub,2013-08-05 12:43:00,
2013-08-05 08:48:00,67.5,56.5,30.01,North,355,5.0,20.0,68,0.00,,,0.00,466.0,meteohub,2013-08-05 12:48:00,
2013-08-05 08:53:00,67.6,55.9,30.01,WNW,293,9.0,17.0,66,0.00,,,0.00,483.0,meteohub,2013-08-05 12:53:00,
2013-08-05 08:58:00,68.0,56.3,30.01,NW,309,12.0,17.0,66,0.00,,,0.00,504.0,meteohub,2013-08-05 12:58:00,
2013-08-05 09:04:00,67.8,55.6,30.00,NNW,329,12.0,18.0,65,0.00,,,0.00,517.0,meteohub,2013-08-05 13:04:00,
2013-08-05 09:09:00,68.4,55.8,30.00,WNW,293,15.0,21.0,64,0.00,,,0.00,534.0,meteohub,2013-08-05 13:09:00,
2013-08-05 09:14:00,68.5,55.9,30.00,WNW,302,13.0,21.0,64,0.00,,,0.00,550.0,meteohub,2013-08-05 13:14:00,
2013-08-05 09:20:00,68.9,55.8,30.00,NNW,327,10.0,21.0,63,0.00,,,0.00,566.0,meteohub,2013-08-05 13:20:00,
2013-08-05 09:25:00,69.3,55.8,30.00,North,9,6.0,20.0,62,0.00,,,0.00,578.0,meteohub,2013-08-05 13:25:00,
2013-08-05 09:32:00,69.3,54.3,30.00,NNW,346,12.0,18.0,59,0.00,,,0.00,596.0,meteohub,2013-08-05 13:32:00,
2013-08-05 09:36:00,69.6,54.7,30.00,NE,40,8.0,23.0,59,0.00,,,0.00,612.0,meteohub,2013-08-05 13:36:00,
2013-08-05 09:42:00,70.2,54.1,30.00,NW,320,8.0,23.0,57,0.00,,,0.00,624.0,meteohub,2013-08-05 13:42:00,
2013-08-05 09:47:00,70.9,54.0,30.01,NNE,26,15.0,23.0,55,0.00,,,0.00,636.0,meteohub,2013-08-05 13:47:00,
2013-08-05 09:52:00,71.1,54.1,30.00,NNW,336,8.0,19.0,55,0.00,,,0.00,650.0,meteohub,2013-08-05 13:52:00,
2013-08-05 09:57:00,71.6,54.5,30.01,NNE,20,6.0,19.0,55,0.00,,,0.00,663.0,meteohub,2013-08-05 13:57:00,
2013-08-05 10:02:00,71.8,54.3,30.00,North,10,7.0,19.0,54,0.00,,,0.00,673.0,meteohub,2013-08-05 14:02:00,
2013-08-05 10:07:00,72.1,53.6,30.01,North,355,10.0,16.0,52,0.00,,,0.00,689.0,meteohub,2013-08-05 14:07:00,
2013-08-05 10:12:00,72.7,53.4,30.00,WNW,300,7.0,19.0,51,0.00,,,0.00,700.0,meteohub,2013-08-05 14:12:00,
2013-08-05 10:17:00,72.9,52.0,30.01,NNW,340,8.0,19.0,48,0.00,,,0.00,710.0,meteohub,2013-08-05 14:17:00,
2013-08-05 10:22:00,73.2,51.8,30.01,NW,314,5.0,19.0,47,0.00,,,0.00,721.0,meteohub,2013-08-05 14:22:00,
2013-08-05 10:28:00,73.6,50.9,30.01,WNW,295,6.0,17.0,45,0.00,,,0.00,733.0,meteohub,2013-08-05 14:28:00,
2013-08-05 10:33:00,73.4,51.4,30.01,WNW,296,4.0,17.0,46,0.00,,,0.00,740.0,meteohub,2013-08-05 14:33:00,
2013-08-05 10:37:00,73.2,49.5,30.01,North,0,9.0,21.0,43,0.00,,,0.00,756.0,meteohub,2013-08-05 14:37:00,
2013-08-05 10:43:00,73.9,51.3,30.01,NW,315,7.0,21.0,45,0.00,,,0.00,765.0,meteohub,2013-08-05 14:43:00,
2013-08-05 10:48:00,74.7,51.3,30.00,NNW,333,11.0,21.0,44,0.00,,,0.00,773.0,meteohub,2013-08-05 14:48:00,
2013-08-05 10:53:00,74.1,48.9,30.01,NNW,342,10.0,19.0,41,0.00,,,0.00,784.0,meteohub,2013-08-05 14:53:00,
2013-08-05 10:59:00,73.8,48.6,30.01,NW,310,8.0,19.0,41,0.00,,,0.00,795.0,meteohub,2013-08-05 14:59:00,
2013-08-05 11:04:00,74.8,49.6,30.00,North,5,11.0,28.0,41,0.00,,,0.00,803.0,meteohub,2013-08-05 15:04:00,
2013-08-05 11:09:00,75.4,50.0,30.01,NNE,20,8.0,28.0,41,0.00,,,0.00,810.0,meteohub,2013-08-05 15:09:00,
2013-08-05 11:14:00,75.4,49.5,30.01,NNE,16,7.0,28.0,40,0.00,,,0.00,817.0,meteohub,2013-08-05 15:14:00,
2013-08-05 11:19:00,75.7,50.4,30.01,NNE,17,6.0,20.0,41,0.00,,,0.00,826.0,meteohub,2013-08-05 15:19:00,
2013-08-05 11:24:00,75.7,49.6,30.00,NW,326,9.0,21.0,40,0.00,,,0.00,838.0,meteohub,2013-08-05 15:24:00,
2013-08-05 11:30:00,76.5,50.4,30.00,NNE,22,9.0,22.0,40,0.00,,,0.00,844.0,meteohub,2013-08-05 15:30:00,
2013-08-05 11:35:00,76.8,50.7,30.00,North,10,9.0,22.0,40,0.00,,,0.00,849.0,meteohub,2013-08-05 15:35:00,
2013-08-05 11:40:00,77.0,52.2,30.00,NNW,337,8.0,22.0,42,0.00,,,0.00,853.0,meteohub,2013-08-05 15:40:00,
2013-08-05 11:45:00,77.2,51.6,30.01,NW,313,9.0,18.0,41,0.00,,,0.00,856.0,meteohub,2013-08-05 15:45:00,
2013-08-05 11:50:00,76.6,50.5,30.01,NW,305,13.0,18.0,40,0.00,,,0.00,865.0,meteohub,2013-08-05 15:50:00,
2013-08-05 11:56:00,75.9,50.5,30.00,NW,319,13.0,21.0,41,0.00,,,0.00,870.0,meteohub,2013-08-05 15:56:00,
2013-08-05 12:01:00,75.4,50.7,30.00,NNE,32,6.0,21.0,42,0.00,,,0.00,875.0,meteohub,2013-08-05 16:01:00,
2013-08-05 12:06:00,75.9,50.5,30.00,NW,326,6.0,25.0,41,0.00,,,0.00,877.0,meteohub,2013-08-05 16:06:00,
2013-08-05 12:11:00,74.8,50.2,30.00,West,273,13.0,25.0,42,0.00,,,0.00,884.0,meteohub,2013-08-05 16:11:00,
2013-08-05 12:17:00,75.9,50.5,30.00,NNW,344,7.0,23.0,41,0.00,,,0.00,891.0,meteohub,2013-08-05 16:17:00,
2013-08-05 12:22:00,77.7,50.7,29.99,WNW,293,6.0,23.0,39,0.00,,,0.00,895.0,meteohub,2013-08-05 16:22:00,
2013-08-05 12:27:00,78.6,51.6,29.99,NNW,329,7.0,18.0,39,0.00,,,0.00,896.0,meteohub,2013-08-05 16:27:00,
2013-08-05 12:31:00,78.4,50.7,30.00,NNW,338,12.0,17.0,38,0.00,,,0.00,896.0,meteohub,2013-08-05 16:31:00,
2013-08-05 12:37:00,77.5,50.0,30.00,NNW,340,14.0,19.0,38,0.00,,,0.00,898.0,meteohub,2013-08-05 16:37:00,
2013-08-05 12:42:00,78.8,50.4,29.99,NW,317,8.0,19.0,37,0.00,,,0.00,900.0,meteohub,2013-08-05 16:42:00,
2013-08-05 12:47:00,78.6,50.9,30.00,NW,315,4.0,19.0,38,0.00,,,0.00,898.0,meteohub,2013-08-05 16:47:00,
2013-08-05 12:52:00,78.4,49.3,30.00,North,350,11.0,18.0,36,0.00,,,0.00,902.0,meteohub,2013-08-05 16:52:00,
2013-08-05 12:57:00,78.6,50.2,30.00,NW,315,14.0,20.0,37,0.00,,,0.00,902.0,meteohub,2013-08-05 16:57:00,
2013-08-05 13:02:00,78.8,51.1,29.99,North,9,7.0,20.0,38,0.00,,,0.00,902.0,meteohub,2013-08-05 17:02:00,
2013-08-05 13:07:00,79.9,51.3,29.99,NW,304,8.0,20.0,37,0.00,,,0.00,900.0,meteohub,2013-08-05 17:07:00,
2013-08-05 13:13:00,80.8,51.3,29.99,North,5,10.0,16.0,36,0.00,,,0.00,900.0,meteohub,2013-08-05 17:13:00,
2013-08-05 13:18:00,79.9,48.9,29.99,NNW,338,10.0,15.0,34,0.00,,,0.00,904.0,meteohub,2013-08-05 17:18:00,
2013-08-05 13:22:00,79.2,49.1,29.99,NW,316,11.0,25.0,35,0.00,,,0.00,898.0,meteohub,2013-08-05 17:22:00,
2013-08-05 13:28:00,78.4,50.0,29.99,NNW,333,9.0,25.0,37,0.00,,,0.00,896.0,meteohub,2013-08-05 17:28:00,
2013-08-05 13:33:00,79.2,50.7,29.98,WNW,299,16.0,25.0,37,0.00,,,0.00,895.0,meteohub,2013-08-05 17:33:00,
2013-08-05 13:38:00,79.3,50.0,29.98,WNW,286,13.0,19.0,36,0.00,,,0.00,893.0,meteohub,2013-08-05 17:38:00,
2013-08-05 13:43:00,79.0,49.8,29.98,NW,326,8.0,21.0,36,0.00,,,0.00,891.0,meteohub,2013-08-05 17:43:00,
2013-08-05 13:48:00,79.9,52.0,29.98,NNW,340,10.0,21.0,38,0.00,,,0.00,886.0,meteohub,2013-08-05 17:48:00,
2013-08-05 13:54:00,80.2,50.9,29.98,NNW,342,14.0,21.0,36,0.00,,,0.00,879.0,meteohub,2013-08-05 17:54:00,
2013-08-05 14:00:00,79.9,50.5,29.98,WNW,297,13.0,19.0,36,0.00,,,0.00,877.0,meteohub,2013-08-05 18:00:00,
2013-08-05 14:05:00,80.4,51.8,29.98,NW,316,4.0,19.0,37,0.00,,,0.00,877.0,meteohub,2013-08-05 18:05:00,
2013-08-05 14:10:00,80.2,51.6,29.98,NNW,328,8.0,15.0,37,0.00,,,0.00,872.0,meteohub,2013-08-05 18:10:00,
2013-08-05 14:15:00,81.3,51.1,29.97,NNE,28,6.0,15.0,35,0.00,,,0.00,865.0,meteohub,2013-08-05 18:15:00,
2013-08-05 14:21:00,82.0,51.6,29.97,NNE,16,13.0,15.0,35,0.00,,,0.00,865.0,meteohub,2013-08-05 18:21:00,
2013-08-05 14:26:00,81.7,50.5,29.97,WNW,288,1.0,16.0,34,0.00,,,0.00,854.0,meteohub,2013-08-05 18:26:00,
2013-08-05 14:31:00,81.1,51.6,29.97,NNW,327,8.0,17.0,36,0.00,,,0.00,842.0,meteohub,2013-08-05 18:31:00,
2013-08-05 14:37:00,82.0,54.0,29.97,NE,35,7.0,17.0,38,0.00,,,0.00,833.0,meteohub,2013-08-05 18:37:00,
2013-08-05 14:42:00,82.0,50.9,29.97,WNW,293,8.0,14.0,34,0.00,,,0.00,826.0,meteohub,2013-08-05 18:42:00,
2013-08-05 14:47:00,82.0,50.9,29.97,NW,309,8.0,18.0,34,0.00,,,0.00,819.0,meteohub,2013-08-05 18:47:00,
2013-08-05 14:52:00,82.2,51.8,29.97,NNW,334,5.0,18.0,35,0.00,,,0.00,812.0,meteohub,2013-08-05 18:52:00,
2013-08-05 14:58:00,82.0,51.6,29.97,NNW,333,8.0,18.0,35,0.00,,,0.00,798.0,meteohub,2013-08-05 18:58:00,
2013-08-05 15:03:00,82.0,50.9,29.97,NNW,336,10.0,17.0,34,0.00,,,0.00,789.0,meteohub,2013-08-05 19:03:00,
2013-08-05 15:08:00,82.0,51.6,29.97,NNW,344,11.0,18.0,35,0.00,,,0.00,780.0,meteohub,2013-08-05 19:08:00,
2013-08-05 15:13:00,82.8,51.4,29.97,NNE,22,10.0,18.0,34,0.00,,,0.00,773.0,meteohub,2013-08-05 19:13:00,
2013-08-05 15:18:00,81.7,49.8,29.97,West,277,11.0,18.0,33,0.00,,,0.00,758.0,meteohub,2013-08-05 19:18:00,
2013-08-05 15:23:00,81.9,51.4,29.97,NW,321,11.0,18.0,35,0.00,,,0.00,747.0,meteohub,2013-08-05 19:23:00,
2013-08-05 15:28:00,82.2,51.1,29.97,WNW,286,11.0,18.0,34,0.00,,,0.00,740.0,meteohub,2013-08-05 19:28:00,
2013-08-05 15:33:00,82.8,51.4,29.97,North,355,10.0,18.0,34,0.00,,,0.00,726.0,meteohub,2013-08-05 19:33:00,
2013-08-05 15:39:00,81.7,50.5,29.97,SW,216,3.0,15.0,34,0.00,,,0.00,719.0,meteohub,2013-08-05 19:39:00,
2013-08-05 15:44:00,81.3,50.2,29.97,West,280,14.0,15.0,34,0.00,,,0.00,707.0,meteohub,2013-08-05 19:44:00,
2013-08-05 15:49:00,81.0,50.0,29.97,WNW,292,7.0,16.0,34,0.00,,,0.00,691.0,meteohub,2013-08-05 19:49:00,
2013-08-05 15:54:00,81.1,50.2,29.96,NW,313,7.0,18.0,34,0.00,,,0.00,680.0,meteohub,2013-08-05 19:54:00,
2013-08-05 15:59:00,81.3,51.1,29.96,NW,323,11.0,18.0,35,0.00,,,0.00,671.0,meteohub,2013-08-05 19:59:00,
2013-08-05 16:05:00,81.3,50.2,29.96,SW,222,0.0,18.0,34,0.00,,,0.00,654.0,meteohub,2013-08-05 20:05:00,
2013-08-05 16:11:00,80.8,50.5,29.96,NW,325,9.0,15.0,35,0.00,,,0.00,642.0,meteohub,2013-08-05 20:11:00,
2013-08-05 16:16:00,82.6,50.5,29.96,WNW,302,2.0,14.0,33,0.00,,,0.00,628.0,meteohub,2013-08-05 20:16:00,
2013-08-05 16:22:00,82.8,50.7,29.96,WNW,297,6.0,14.0,33,0.00,,,0.00,612.0,meteohub,2013-08-05 20:22:00,
2013-08-05 16:27:00,82.2,51.1,29.96,WNW,297,11.0,14.0,34,0.00,,,0.00,594.0,meteohub,2013-08-05 20:27:00,
2013-08-05 16:32:00,81.7,49.8,29.96,NW,325,7.0,14.0,33,0.00,,,0.00,582.0,meteohub,2013-08-05 20:32:00,
2013-08-05 16:37:00,81.9,50.7,29.96,NW,305,11.0,14.0,34,0.00,,,0.00,570.0,meteohub,2013-08-05 20:37:00,
2013-08-05 16:42:00,82.0,50.9,29.96,WNW,292,6.0,14.0,34,0.00,,,0.00,561.0,meteohub,2013-08-05 20:42:00,
2013-08-05 16:48:00,82.4,50.4,29.96,NW,311,5.0,14.0,33,0.00,,,0.00,540.0,meteohub,2013-08-05 20:48:00,
2013-08-05 16:53:00,82.4,51.3,29.96,WNW,302,11.0,14.0,34,0.00,,,0.00,529.0,meteohub,2013-08-05 20:53:00,
2013-08-05 16:58:00,81.3,51.1,29.97,NW,313,12.0,13.0,35,0.00,,,0.00,512.0,meteohub,2013-08-05 20:58:00,
2013-08-05 17:04:00,80.4,51.1,29.97,NW,321,5.0,18.0,36,0.00,,,0.00,492.0,meteohub,2013-08-05 21:04:00,
2013-08-05 17:09:00,80.8,51.3,29.97,North,5,7.0,18.0,36,0.00,,,0.00,482.0,meteohub,2013-08-05 21:09:00,
2013-08-05 17:15:00,81.1,50.9,29.97,NNW,328,0.0,18.0,35,0.00,,,0.00,464.0,meteohub,2013-08-05 21:15:00,
2013-08-05 17:20:00,81.3,51.1,29.97,WNW,303,4.0,15.0,35,0.00,,,0.00,448.0,meteohub,2013-08-05 21:20:00,
2013-08-05 17:25:00,79.0,50.5,29.96,NNW,347,6.0,13.0,37,0.00,,,0.00,432.0,meteohub,2013-08-05 21:25:00,
2013-08-05 17:30:00,80.1,50.7,29.97,WNW,298,7.0,15.0,36,0.00,,,0.00,417.0,meteohub,2013-08-05 21:30:00,
2013-08-05 17:35:00,80.1,50.7,29.96,NNW,343,9.0,15.0,36,0.00,,,0.00,401.0,meteohub,2013-08-05 21:35:00,
2013-08-05 17:40:00,80.2,50.9,29.97,NW,323,7.0,17.0,36,0.00,,,0.00,385.0,meteohub,2013-08-05 21:40:00,
2013-08-05 17:46:00,80.1,51.4,29.97,NW,323,7.0,17.0,37,0.00,,,0.00,367.0,meteohub,2013-08-05 21:46:00,
2013-08-05 17:52:00,80.1,51.4,29.97,NW,304,6.0,12.0,37,0.00,,,0.00,353.0,meteohub,2013-08-05 21:52:00,
2013-08-05 17:57:00,80.1,50.7,29.97,NW,310,9.0,12.0,36,0.00,,,0.00,334.0,meteohub,2013-08-05 21:57:00,
2013-08-05 18:02:00,79.9,50.5,29.97,WNW,298,4.0,12.0,36,0.00,,,0.00,320.0,meteohub,2013-08-05 22:02:00,
2013-08-05 18:08:00,79.5,50.9,29.97,NW,317,9.0,12.0,37,0.00,,,0.00,297.0,meteohub,2013-08-05 22:08:00,
2013-08-05 18:13:00,79.9,51.3,29.97,WNW,292,7.0,11.0,37,0.00,,,0.00,281.0,meteohub,2013-08-05 22:13:00,
2013-08-05 18:18:00,79.5,51.6,29.97,NNW,328,2.0,11.0,38,0.00,,,0.00,264.0,meteohub,2013-08-05 22:18:00,
2013-08-05 18:24:00,79.3,50.7,29.97,NW,321,5.0,11.0,37,0.00,,,0.00,251.0,meteohub,2013-08-05 22:24:00,
2013-08-05 18:29:00,79.0,51.3,29.98,WNW,303,2.0,10.0,38,0.00,,,0.00,232.0,meteohub,2013-08-05 22:29:00,
2013-08-05 18:34:00,78.1,51.1,29.98,NW,324,4.0,9.0,39,0.00,,,0.00,206.0,meteohub,2013-08-05 22:34:00,
2013-08-05 18:39:00,78.1,51.1,29.99,WNW,298,4.0,9.0,39,0.00,,,0.00,197.0,meteohub,2013-08-05 22:39:00,
2013-08-05 18:44:00,77.9,51.6,29.99,WNW,295,0.0,10.0,40,0.00,,,0.00,178.0,meteohub,2013-08-05 22:44:00,
2013-08-05 18:49:00,77.7,51.4,29.99,WNW,295,1.0,10.0,40,0.00,,,0.00,158.0,meteohub,2013-08-05 22:49:00,
2013-08-05 18:54:00,77.5,52.7,29.99,WNW,295,0.0,10.0,42,0.00,,,0.00,141.0,meteohub,2013-08-05 22:54:00,
2013-08-05 19:00:00,77.4,53.1,29.99,WNW,295,2.0,6.0,43,0.00,,,0.00,114.0,meteohub,2013-08-05 23:00:00,
2013-08-05 19:05:00,77.2,52.9,29.99,WNW,295,1.0,4.0,43,0.00,,,0.00,44.0,meteohub,2013-08-05 23:05:00,
2013-08-05 19:10:00,76.3,52.7,29.99,WNW,295,1.0,5.0,44,0.00,,,0.00,28.0,meteohub,2013-08-05 23:10:00,
2013-08-05 19:16:00,75.4,53.8,29.99,WNW,295,0.0,4.0,47,0.00,,,0.00,23.0,meteohub,2013-08-05 23:16:00,
2013-08-05 19:21:00,74.3,53.4,29.99,WNW,295,0.0,2.0,48,0.00,,,0.00,23.0,meteohub,2013-08-05 23:21:00,
2013-08-05 19:26:00,73.6,53.2,30.00,WNW,295,2.0,5.0,49,0.00,,,0.00,23.0,meteohub,2013-08-05 23:26:00,
2013-08-05 19:32:00,73.2,54.0,30.00,WNW,295,0.0,5.0,51,0.00,,,0.00,19.0,meteohub,2013-08-05 23:32:00,
2013-08-05 19:37:00,72.9,53.1,30.01,WNW,295,0.0,5.0,50,0.00,,,0.00,16.0,meteohub,2013-08-05 23:37:00,
2013-08-05 19:42:00,72.0,54.3,30.00,WNW,295,0.0,5.0,54,0.00,,,0.00,11.0,meteohub,2013-08-05 23:42:00,
2013-08-05 19:47:00,70.5,54.5,30.01,WNW,295,0.0,4.0,57,0.00,,,0.00,9.0,meteohub,2013-08-05 23:47:00,
2013-08-05 19:52:00,69.3,53.8,30.01,WNW,295,0.0,4.0,58,0.00,,,0.00,5.0,meteohub,2013-08-05 23:52:00,
2013-08-05 19:58:00,68.7,53.4,30.01,WNW,295,0.0,1.0,58,0.00,,,0.00,0.0,meteohub,2013-08-05 23:58:00,
2013-08-05 20:03:00,68.9,54.9,30.01,WNW,295,0.0,1.0,61,0.00,,,0.00,0.0,meteohub,2013-08-06 00:03:00,
2013-08-05 20:08:00,69.1,55.0,30.01,WNW,295,0.0,2.0,61,0.00,,,0.00,0.0,meteohub,2013-08-06 00:08:00,
2013-08-05 20:13:00,68.2,55.6,30.01,WNW,295,0.0,2.0,64,0.00,,,0.00,0.0,meteohub,2013-08-06 00:13:00,
2013-08-05 20:19:00,67.5,55.8,30.02,WNW,295,0.0,2.0,66,0.00,,,0.00,0.0,meteohub,2013-08-06 00:19:00,
2013-08-05 20:24:00,66.7,55.4,30.02,WNW,295,0.0,0.0,67,0.00,,,0.00,0.0,meteohub,2013-08-06 00:24:00,
2013-08-05 20:29:00,66.7,55.8,30.02,WNW,295,0.0,0.0,68,0.00,,,0.00,0.0,meteohub,2013-08-06 00:29:00,
2013-08-05 20:34:00,66.6,55.2,30.02,WNW,295,0.0,0.0,67,0.00,,,0.00,0.0,meteohub,2013-08-06 00:34:00,
2013-08-05 20:39:00,65.8,55.0,30.02,WNW,295,0.0,1.0,68,0.00,,,0.00,0.0,meteohub,2013-08-06 00:39:00,
2013-08-05 20:44:00,65.1,55.4,30.02,WNW,295,0.0,1.0,71,0.00,,,0.00,0.0,meteohub,2013-08-06 00:44:00,
2013-08-05 20:50:00,64.8,55.6,30.03,WNW,295,0.0,0.0,72,0.00,,,0.00,0.0,meteohub,2013-08-06 00:50:00,
2013-08-05 20:55:00,64.2,55.4,30.03,WNW,295,0.0,0.0,73,0.00,,,0.00,0.0,meteohub,2013-08-06 00:55:00,
2013-08-05 21:00:00,64.0,55.6,30.03,WNW,295,0.0,0.0,74,0.00,,,0.00,0.0,meteohub,2013-08-06 01:00:00,
2013-08-05 21:05:00,63.9,55.4,30.03,WNW,295,0.0,0.0,74,0.00,,,0.00,0.0,meteohub,2013-08-06 01:05:00,
2013-08-05 21:11:00,63.9,55.8,30.03,WNW,295,0.0,0.0,75,0.00,,,0.00,0.0,meteohub,2013-08-06 01:11:00,
2013-08-05 21:16:00,63.3,54.9,30.03,WNW,295,0.0,0.0,74,0.00,,,0.00,0.0,meteohub,2013-08-06 01:16:00,
2013-08-05 21:21:00,63.1,55.0,30.03,WNW,295,0.0,0.0,75,0.00,,,0.00,0.0,meteohub,2013-08-06 01:21:00,
2013-08-05 21:27:00,63.0,55.2,30.03,WNW,295,0.0,0.0,76,0.00,,,0.00,0.0,meteohub,2013-08-06 01:27:00,
2013-08-05 21:32:00,62.4,55.0,30.03,WNW,295,0.0,0.0,77,0.00,,,0.00,0.0,meteohub,2013-08-06 01:32:00,
2013-08-05 21:37:00,62.2,55.6,30.03,WNW,295,0.0,0.0,79,0.00,,,0.00,0.0,meteohub,2013-08-06 01:37:00,
2013-08-05 21:42:00,62.1,55.8,30.03,WNW,295,0.0,0.0,80,0.00,,,0.00,0.0,meteohub,2013-08-06 01:42:00,
2013-08-05 21:47:00,61.9,55.9,30.04,WNW,295,0.0,0.0,81,0.00,,,0.00,0.0,meteohub,2013-08-06 01:47:00,
2013-08-05 21:52:00,61.7,55.8,30.03,WNW,295,0.0,0.0,81,0.00,,,0.00,0.0,meteohub,2013-08-06 01:52:00,
2013-08-05 21:58:00,61.9,55.9,30.04,WNW,295,0.0,0.0,81,0.00,,,0.00,0.0,meteohub,2013-08-06 01:58:00,
2013-08-05 22:03:00,61.5,55.6,30.03,WNW,295,0.0,0.0,81,0.00,,,0.00,0.0,meteohub,2013-08-06 02:03:00,
2013-08-05 22:08:00,61.5,55.6,30.04,WNW,295,0.0,0.0,81,0.00,,,0.00,0.0,meteohub,2013-08-06 02:08:00,
2013-08-05 22:13:00,61.2,55.6,30.03,WNW,295,4.0,0.0,82,0.00,,,0.00,0.0,meteohub,2013-08-06 02:13:00,
2013-08-05 22:18:00,60.8,55.9,30.03,WNW,295,2.0,4.0,84,0.00,,,0.00,0.0,meteohub,2013-08-06 02:18:00,
2013-08-05 22:24:00,60.6,56.1,30.03,WNW,295,4.0,4.0,85,0.00,,,0.00,0.0,meteohub,2013-08-06 02:24:00,
2013-08-05 22:29:00,60.4,55.9,30.03,WNW,295,1.0,4.0,85,0.00,,,0.00,0.0,meteohub,2013-08-06 02:29:00,
2013-08-05 22:34:00,60.4,55.9,30.03,WNW,295,0.0,4.0,85,0.00,,,0.00,0.0,meteohub,2013-08-06 02:34:00,
2013-08-05 22:40:00,60.6,56.1,30.03,WNW,295,0.0,4.0,85,0.00,,,0.00,0.0,meteohub,2013-08-06 02:40:00,
2013-08-05 22:45:00,60.4,55.9,30.03,WNW,295,0.0,2.0,85,0.00,,,0.00,0.0,meteohub,2013-08-06 02:45:00,
2013-08-05 22:50:00,60.4,55.9,30.03,WNW,295,0.0,2.0,85,0.00,,,0.00,0.0,meteohub,2013-08-06 02:50:00,
2013-08-05 22:55:00,60.3,55.8,30.03,WNW,295,0.0,2.0,85,0.00,,,0.00,0.0,meteohub,2013-08-06 02:55:00,
2013-08-05 23:00:00,60.3,56.1,30.03,WNW,295,0.0,0.0,86,0.00,,,0.00,0.0,meteohub,2013-08-06 03:00:00,
2013-08-05 23:05:00,60.1,55.9,30.03,WNW,295,0.0,1.0,86,0.00,,,0.00,0.0,meteohub,2013-08-06 03:05:00,
2013-08-05 23:10:00,59.7,55.8,30.03,WNW,295,0.0,1.0,87,0.00,,,0.00,0.0,meteohub,2013-08-06 03:10:00,
2013-08-05 23:16:00,59.5,55.6,30.03,WNW,295,4.0,4.0,87,0.00,,,0.00,0.0,meteohub,2013-08-06 03:16:00,
2013-08-05 23:21:00,59.5,55.6,30.03,WNW,295,2.0,4.0,87,0.00,,,0.00,0.0,meteohub,2013-08-06 03:21:00,
2013-08-05 23:26:00,59.5,55.6,30.03,WNW,295,2.0,4.0,87,0.00,,,0.00,0.0,meteohub,2013-08-06 03:26:00,
2013-08-05 23:31:00,59.4,55.4,30.03,WNW,296,0.0,5.0,87,0.00,,,0.00,0.0,meteohub,2013-08-06 03:31:00,
2013-08-05 23:37:00,59.4,55.8,30.03,WNW,296,0.0,5.0,88,0.00,,,0.00,0.0,meteohub,2013-08-06 03:37:00,
2013-08-05 23:42:00,59.2,55.6,30.03,WNW,296,0.0,5.0,88,0.00,,,0.00,0.0,meteohub,2013-08-06 03:42:00,
2013-08-05 23:47:00,59.4,55.8,30.03,WNW,296,0.0,4.0,88,0.00,,,0.00,0.0,meteohub,2013-08-06 03:47:00,
2013-08-05 23:52:00,59.5,55.6,30.03,WNW,296,0.0,4.0,87,0.00,,,0.00,0.0,meteohub,2013-08-06 03:52:00,
2013-08-05 23:57:00,59.5,55.6,30.03,WNW,296,0.0,4.0,87,0.00,,,0.00,0.0,meteohub,2013-08-06 03:57:00,